Date,TemperatureHighF,TemperatureAvgF,TemperatureLowF,DewpointHighF,DewpointAvgF,DewpointLowF,HumidityHigh,HumidityAvg,HumidityLow,PressureMaxIn,PressureMinIn,WindSpeedMaxMPH,WindSpeedAvgMPH,GustSpeedMaxMPH,PrecipitationSumIn
2013-4-1,37.6,31.5,23.4,30.0,19.0,15.1,80,60,48,30.18,29.84,12,5,23,0.00
2013-4-2,38.6,29.9,23.0,19.6,15.5,11.2,83,58,33,30.33,30.19,14,4,21,0.00
2013-4-3,42.7,30.1,18.0,21.3,16.1,10.6,87,59,28,30.49,30.34,8,2,14,0.00
2013-4-4,54.1,39.6,22.6,25.4,20.3,16.5,81,49,26,30.38,30.00,8,2,13,0.00
2013-4-5,47.8,40.0,30.3,32.2,25.8,19.9,86,59,34,30.23,30.00,11,4,15,0.00
2013-4-6,65.4,50.7,30.8,44.3,32.2,24.8,83,51,36,30.20,29.71,15,6,30,0.01
2013-4-7,61.9,50.2,41.8,47.7,39.7,34.8,83,68,47,29.99,29.65,13,6,35,0.03
2013-4-8,65.2,47.6,39.9,54.5,41.3,34.2,92,79,62,30.00,29.70,18,7,29,0.18
2013-4-9,74.3,55.7,39.9,61.4,48.7,38.0,94,78,55,30.02,29.83,14,5,22,0.00
2013-4-10,52.1,45.9,40.3,49.0,43.8,39.0,96,92,88,29.96,29.84,14,4,18,0.09
2013-4-11,42.6,41.6,39.2,41.5,40.3,38.2,96,95,93,29.90,29.61,22,8,27,0.46
2013-4-12,42.7,38.7,36.0,38.4,35.8,32.0,97,89,79,29.87,29.60,14,6,20,0.10
2013-4-13,41.6,38.2,32.2,33.3,30.0,26.3,93,73,56,30.02,29.87,16,7,23,0.06
2013-4-14,60.1,45.4,36.5,47.5,36.9,29.2,83,72,61,30.07,29.80,16,6,25,0.04
2013-4-15,63.8,57.5,44.7,56.2,51.8,43.1,95,82,69,29.95,29.80,15,5,22,0.02
2013-4-16,48.5,44.5,40.6,43.4,38.3,33.7,96,80,59,30.26,29.95,10,3,14,0.01
2013-4-17,52.1,46.8,41.8,45.3,40.1,34.3,95,78,66,30.29,29.92,16,6,25,0.01
2013-4-18,69.5,58.4,46.6,64.0,56.1,45.0,96,92,78,29.91,29.51,19,7,28,0.02
2013-4-19,52.3,37.9,33.2,50.6,32.4,29.0,94,80,72,29.89,29.50,21,11,31,0.01
2013-4-20,39.9,34.6,30.9,30.5,23.3,18.5,85,64,43,30.48,29.89,14,6,20,0.01
2013-4-21,50.0,38.6,25.9,31.4,24.1,19.0,76,57,41,30.60,30.42,12,4,19,0.06
2013-4-22,62.5,49.9,34.6,36.8,32.7,29.4,82,55,31,30.43,30.12,10,4,19,0.00
2013-4-23,64.6,51.1,38.1,52.8,42.8,36.7,95,75,53,30.12,29.86,18,4,21,0.63
2013-4-24,44.4,38.1,34.3,36.6,31.4,24.8,96,78,50,30.18,29.88,14,5,23,0.04
2013-4-25,48.2,41.7,35.6,36.2,31.9,28.2,85,69,48,30.38,30.13,16,6,24,0.00
2013-4-26,63.1,49.0,34.0,41.8,35.1,27.9,80,60,44,30.43,30.31,15,3,19,0.00
2013-4-27,66.9,55.7,39.7,46.4,40.0,35.7,86,59,33,30.35,30.05,12,3,17,0.00
2013-4-28,58.2,54.2,49.6,53.2,50.1,46.1,94,86,64,30.05,29.84,6,1,9,0.13
2013-4-29,68.7,57.6,44.3,56.7,50.7,43.0,97,80,58,29.96,29.86,10,3,15,0.00
2013-4-30,80.6,67.8,56.9,61.6,56.3,51.1,82,68,47,29.97,29.87,15,6,20,0.00